Weather History for KFYG - May, 2012

Change the Weather History Date:

Saturday, May 26, 2012

  Actual Average (KSTL) Record (KSTL)
Temperature  
Mean Temperature 82 °F 70 °F  
Max Temperature 93 °F 79 °F 98 °F (1953)
Min Temperature 71 °F 60 °F 38 °F (1961)
Degree Days  
Heating Degree Days 0 1  
Month to date heating degree days 70  
Since 1 July heating degree days 4526  
Cooling Degree Days 17 6  
Month to date cooling degree days 96  
Year to date cooling degree days 142  
Growing Degree Days 32 (Base 50)    
Moisture  
Dew Point 69 °F    
Average Humidity 66    
Maximum Humidity 83    
Minimum Humidity 44    
Precipitation  
Precipitation 0.00 in 0.16 in 3.26 in (1893)
Month to date precipitation 3.90  
Year to date precipitation 15.55  
Snow  
Snow - 0.00 in 0.00 in (2014)
Month to date snowfall 0.0  
Since 1 July snowfall 17.7  
Snow Depth -    
Sea Level Pressure  
Sea Level Pressure 30.00 in    
Wind  
Wind Speed 3 mph ()    
Max Wind Speed 13 mph    
Max Gust Speed 16 mph    
Visibility 10.0 miles    
Events      
T = Trace of Precipitation, MM = Missing Value Source: Averaged Metar Reports

Daily Weather History Graph

Daily Weather History Graph

Search for Another Location

Airport or City:

Trip Planner

Search our weather history database for the weather conditions in past years. The results will help you decide how hot, cold, wet, or windy it might be!

Date:

Astronomy

May. 26, 2012 Rise Set
Actual Time 5:43 AM CDT 8:18 PM CDT
Civil Twilight 5:13 AM CDT 8:49 PM CDT
Nautical Twilight 4:34 AM CDT 9:27 PM CDT
Astronomical Twilight 3:52 AM CDT 10:10 PM CDT
Moon 10:44 AM CDT (5/26) No Moon Set
Length of Visible Light 15h 36m
Length of Day
14h 34m
Waxing Crescent, 28% of the Moon is Illuminated
May 26
Waxing Crescent
May 28
First Quarter
Jun 4
Full
Jun 11
Last Quarter
Jun 19
New

Hourly Weather History & Observations

Time (CDT) Temp. Heat Index Dew Point Humidity Pressure Visibility Wind Dir Wind Speed Gust Speed Precip Events Conditions
12:15 AM 75.2 °F - 68.0 °F 78% 30.00 in 10.0 mi Calm Calm - N/A   Clear
12:35 AM 73.4 °F - 68.0 °F 83% 30.01 in 10.0 mi Calm Calm - N/A   Clear
12:55 AM 73.4 °F - 68.0 °F 83% 30.02 in 10.0 mi Calm Calm - N/A   Clear
1:15 AM 73.4 °F - 68.0 °F 83% 30.02 in 10.0 mi Calm Calm - N/A   Clear
1:35 AM 75.2 °F - 68.0 °F 78% 30.02 in 10.0 mi Calm Calm - N/A   Clear
1:55 AM 73.4 °F - 68.0 °F 83% 30.01 in 10.0 mi Calm Calm - N/A   Clear
2:15 AM 73.4 °F - 68.0 °F 83% 30.01 in 10.0 mi SE 3.5 mph - N/A   Clear
2:35 AM 73.4 °F - 68.0 °F 83% 30.02 in 10.0 mi SE 4.6 mph - N/A   Clear
2:55 AM 73.4 °F - 68.0 °F 83% 30.01 in 10.0 mi Calm Calm - N/A   Clear
3:15 AM 73.4 °F - 68.0 °F 83% 30.01 in 10.0 mi Calm Calm - N/A   Clear
3:35 AM 73.4 °F - 68.0 °F 83% 30.01 in 10.0 mi Calm Calm - N/A   Clear
3:55 AM 71.6 °F - 66.2 °F 83% 30.00 in 10.0 mi Calm Calm - N/A   Clear
4:15 AM 73.4 °F - 66.2 °F 78% 30.00 in 10.0 mi Calm Calm - N/A   Clear
4:35 AM 71.6 °F - 66.2 °F 83% 30.00 in 10.0 mi SE 5.8 mph - N/A   Clear
4:55 AM 71.6 °F - 66.2 °F 83% 30.00 in 10.0 mi Calm Calm - N/A   Clear
5:15 AM 71.6 °F - 66.2 °F 83% 30.01 in 10.0 mi Calm Calm - N/A   Clear
5:35 AM 71.6 °F - 66.2 °F 83% 30.02 in 10.0 mi Calm Calm - N/A   Clear
5:55 AM 71.6 °F - 66.2 °F 83% 30.02 in 10.0 mi Calm Calm - N/A   Clear
6:15 AM 71.6 °F - 66.2 °F 83% 30.04 in 10.0 mi Calm Calm - N/A   Clear
6:35 AM 71.6 °F - 66.2 °F 83% 30.03 in 10.0 mi Calm Calm - N/A   Clear
6:55 AM 71.6 °F - 66.2 °F 83% 30.04 in 10.0 mi Calm Calm - N/A   Clear
7:15 AM 73.4 °F - 66.2 °F 78% 30.04 in 10.0 mi SE 3.5 mph - N/A   Clear
7:35 AM 73.4 °F - 68.0 °F 83% 30.04 in 10.0 mi SSE 5.8 mph - N/A   Clear
7:55 AM 73.4 °F - 68.0 °F 83% 30.05 in 10.0 mi SSE 5.8 mph - N/A   Clear
8:15 AM 75.2 °F - 68.0 °F 78% 30.05 in 10.0 mi Calm Calm - N/A   Clear
8:35 AM 77.0 °F - 68.0 °F 74% 30.06 in 10.0 mi South 6.9 mph - N/A   Clear
8:55 AM 78.8 °F - 69.8 °F 74% 30.06 in 10.0 mi Calm Calm - N/A   Clear
9:15 AM 80.6 °F 83.9 °F 69.8 °F 70% 30.06 in 10.0 mi Calm Calm - N/A   Clear
9:35 AM 80.6 °F 84.6 °F 71.6 °F 74% 30.06 in 10.0 mi Calm Calm - N/A   Clear
9:55 AM 82.4 °F 87.2 °F 71.6 °F 70% 30.06 in 10.0 mi SW 3.5 mph - N/A   Clear
10:15 AM 84.2 °F 89.6 °F 71.6 °F 66% 30.06 in 10.0 mi Calm Calm - N/A   Partly Cloudy
10:35 AM 84.2 °F 89.6 °F 71.6 °F 66% 30.06 in 10.0 mi Calm Calm - N/A   Mostly Cloudy
10:55 AM 84.2 °F 89.6 °F 71.6 °F 66% 30.06 in 10.0 mi SW 4.6 mph - N/A   Mostly Cloudy
11:15 AM 86.0 °F 91.8 °F 71.6 °F 62% 30.05 in 10.0 mi SW 4.6 mph - N/A   Mostly Cloudy
11:35 AM 86.0 °F 91.8 °F 71.6 °F 62% 30.05 in 10.0 mi Calm Calm - N/A   Partly Cloudy
11:55 AM 86.0 °F 93.4 °F 73.4 °F 66% 30.04 in 10.0 mi Calm Calm - N/A   Clear
12:15 PM 87.8 °F 93.8 °F 71.6 °F 58% 30.03 in 10.0 mi SSE 5.8 mph - N/A   Clear
12:35 PM 87.8 °F 93.8 °F 71.6 °F 58% 30.02 in 10.0 mi SE 6.9 mph - N/A   Partly Cloudy
12:55 PM 89.6 °F 98.2 °F 73.4 °F 59% 30.02 in 10.0 mi ESE 6.9 mph - N/A   Partly Cloudy
1:15 PM 89.6 °F 96.2 °F 71.6 °F 55% 30.01 in 10.0 mi SE 6.9 mph - N/A   Partly Cloudy
1:35 PM 89.6 °F 96.2 °F 71.6 °F 55% 30.00 in 10.0 mi SSE 10.4 mph - N/A   Clear
1:55 PM 89.6 °F 96.2 °F 71.6 °F 55% 29.99 in 10.0 mi South 11.5 mph 16.1 mph N/A   Clear
2:15 PM 91.4 °F 98.4 °F 71.6 °F 52% 29.98 in 10.0 mi SSE 10.4 mph - N/A   Clear
2:35 PM 91.4 °F 98.4 °F 71.6 °F 52% 29.98 in 10.0 mi SSE 10.4 mph - N/A   Clear
2:55 PM 91.4 °F 98.4 °F 71.6 °F 52% 29.97 in 10.0 mi SSE 12.7 mph - N/A   Clear
3:15 PM 93.2 °F 100.5 °F 71.6 °F 49% 29.97 in 10.0 mi South 10.4 mph - N/A   Clear
3:35 PM 91.4 °F 98.4 °F 71.6 °F 52% 29.96 in 10.0 mi South 9.2 mph - N/A   Clear
3:55 PM 93.2 °F 97.7 °F 68.0 °F 44% 29.95 in 10.0 mi South 8.1 mph - N/A   Clear
4:15 PM 93.2 °F 100.5 °F 71.6 °F 49% 29.95 in 10.0 mi SSE 11.5 mph - N/A   Clear
4:35 PM 93.2 °F 100.5 °F 71.6 °F 49% 29.95 in 10.0 mi South 9.2 mph - N/A   Clear
4:55 PM 93.2 °F 98.8 °F 69.8 °F 46% 29.94 in 10.0 mi South 12.7 mph - N/A   Clear
5:15 PM 91.4 °F 98.4 °F 71.6 °F 52% 29.94 in 10.0 mi South 11.5 mph - N/A   Clear
5:35 PM 91.4 °F 98.4 °F 71.6 °F 52% 29.94 in 10.0 mi SE 9.2 mph - N/A   Clear
5:55 PM 91.4 °F 98.4 °F 71.6 °F 52% 29.94 in 10.0 mi SSE 10.4 mph - N/A   Clear
6:15 PM 91.4 °F 98.4 °F 71.6 °F 52% 29.94 in 10.0 mi SSE 9.2 mph - N/A   Clear
6:35 PM 89.6 °F 96.2 °F 71.6 °F 55% 29.94 in 10.0 mi SSE 8.1 mph - N/A   Clear
6:55 PM 89.6 °F 94.7 °F 69.8 °F 52% 29.94 in 10.0 mi SE 6.9 mph - N/A   Clear
7:15 PM 87.8 °F 91.4 °F 68.0 °F 52% 29.94 in 10.0 mi SSE 6.9 mph - N/A   Clear
7:35 PM 86.0 °F 90.4 °F 69.8 °F 58% 29.94 in 10.0 mi Calm Calm - N/A   Clear
7:55 PM 86.0 °F 90.4 °F 69.8 °F 58% 29.94 in 10.0 mi Calm Calm - N/A   Clear
8:15 PM 86.0 °F 89.4 °F 68.0 °F 55% 29.95 in 10.0 mi SSE 8.1 mph - N/A   Clear
8:35 PM 84.2 °F 86.6 °F 66.2 °F 55% 29.95 in 10.0 mi SSE 5.8 mph - N/A   Clear
8:55 PM 82.4 °F 84.6 °F 66.2 °F 58% 29.95 in 10.0 mi Calm Calm - N/A   Clear
9:15 PM 82.4 °F 84.6 °F 66.2 °F 58% 29.96 in 10.0 mi SE 4.6 mph - N/A   Clear
9:35 PM 82.4 °F 84.6 °F 66.2 °F 58% 29.97 in 10.0 mi Calm Calm - N/A   Clear
9:55 PM 80.6 °F 82.3 °F 64.4 °F 58% 29.97 in 10.0 mi Calm Calm - N/A   Clear
10:15 PM 80.6 °F 82.3 °F 64.4 °F 58% 29.97 in 10.0 mi Calm Calm - N/A   Clear
10:35 PM 78.8 °F - 64.4 °F 61% 29.97 in 10.0 mi Calm Calm - N/A   Clear
10:55 PM 78.8 °F - 64.4 °F 61% 29.97 in 10.0 mi Calm Calm - N/A   Clear
11:15 PM 77.0 °F - 64.4 °F 65% 29.98 in 10.0 mi Calm Calm - N/A   Clear
11:35 PM 77.0 °F - 64.4 °F 65% 29.98 in 10.0 mi Calm Calm - N/A   Clear
11:55 PM 77.0 °F - 64.4 °F 65% 29.98 in 10.0 mi Calm Calm - N/A   Partly Cloudy